When you browse on this site, cookies collect data to enhance your experience and personalize the content and advertising you see.
Visit our Privacy Policy to learn more. By continuing to use the site, you agree to this use of cookies and data.
  • In Österreich
  • Länderverzeichnis
  • Für 7 Tage
  • Wassertemperatur
  • Satellitenkarten
  • Wetterkarte
  • News
  • Widgets
  • user-avatar
    Anmelden

    Stündliche Wetter Limanowa

    Heute, 17 Februar, Sonntag

    Zeit Temperatur Niederschläge Wind Luftdruck Luftfeuchtigkeit
    00:00 +3°C° 0 mm 2 m/S 730 mmHg 72%
    01:00 +3°C° 0 mm 2 m/S 730 mmHg 69%
    02:00 +3°C° 0 mm 2 m/S 730 mmHg 67%
    03:00 +2°C° 0 mm 2 m/S 730 mmHg 65%
    04:00 +2°C° 0 mm 2 m/S 729 mmHg 63%
    05:00 +2°C° 0 mm 2 m/S 729 mmHg 62%
    06:00 +2°C° 0 mm 2 m/S 729 mmHg 61%
    07:00 +2°C° 0 mm 2 m/S 729 mmHg 60%
    08:00 +5°C° 0 mm 1 m/S 730 mmHg 58%
    09:00 +7°C° 0 mm 1 m/S 730 mmHg 56%
    10:00 +9°C° 0 mm 1 m/S 730 mmHg 53%
    11:00 +10°C° 0 mm 1 m/S 730 mmHg 51%
    12:00 +11°C° 0 mm 1 m/S 730 mmHg 49%
    13:00 +13°C° 0 mm 1 m/S 730 mmHg 47%
    14:00 +12°C° 0 mm 1 m/S 729 mmHg 52%
    15:00 +11°C° 0 mm 1 m/S 729 mmHg 58%
    16:00 +9°C° 0 mm 0 m/S 729 mmHg 63%
    17:00 +8°C° 0 mm 1 m/S 729 mmHg 67%
    18:00 +7°C° 0 mm 1 m/S 729 mmHg 71%
    19:00 +5°C° 0 mm 1 m/S 729 mmHg 75%
    20:00 +5°C° 0 mm 1 m/S 729 mmHg 75%
    21:00 +5°C° 0 mm 1 m/S 729 mmHg 76%
    22:00 +4°C° 0 mm 1 m/S 729 mmHg 76%
    23:00 +4°C° 0 mm 1 m/S 729 mmHg 75%

    Morgen, 18 Februar, Montag

    Zeit Temperatur Niederschläge Wind Luftdruck Luftfeuchtigkeit
    00:00 +4°C° 0 mm 1 m/S 728 mmHg 73%
    01:00 +3°C° 0 mm 1 m/S 728 mmHg 72%
    02:00 +3°C° 0 mm 1 m/S 728 mmHg 70%
    03:00 +3°C° 0 mm 1 m/S 728 mmHg 68%
    04:00 +3°C° 0 mm 1 m/S 728 mmHg 67%
    05:00 +3°C° 0 mm 1 m/S 728 mmHg 65%
    06:00 +3°C° 0 mm 1 m/S 728 mmHg 63%
    07:00 +3°C° 0 mm 1 m/S 728 mmHg 62%
    08:00 +5°C° 0 mm 1 m/S 728 mmHg 58%
    09:00 +7°C° 0 mm 1 m/S 728 mmHg 54%
    10:00 +8°C° 0 mm 0 m/S 728 mmHg 50%
    11:00 +9°C° 0 mm 0 m/S 728 mmHg 48%
    12:00 +10°C° 0 mm 0 m/S 728 mmHg 46%
    13:00 +11°C° 0 mm 0 m/S 728 mmHg 44%
    14:00 +10°C° 0 mm 0 m/S 727 mmHg 49%
    15:00 +10°C° 0 mm 0 m/S 727 mmHg 54%
    16:00 +9°C° 0 mm 0 m/S 727 mmHg 60%
    17:00 +8°C° 0 mm 1 m/S 727 mmHg 64%
    18:00 +7°C° 0 mm 1 m/S 727 mmHg 69%
    19:00 +5°C° 0 mm 1 m/S 727 mmHg 73%
    20:00 +5°C° 0 mm 1 m/S 727 mmHg 73%
    21:00 +5°C° 0 mm 1 m/S 726 mmHg 74%
    22:00 +3°C° 0 mm 2 m/S 726 mmHg 74%
    23:00 +4°C° 0 mm 1 m/S 726 mmHg 73%

    übermorgen, 19 Februar, Dienstag

    Zeit Temperatur Niederschläge Wind Luftdruck Luftfeuchtigkeit
    00:00 +4°C° 0 mm 1 m/S 726 mmHg 71%
    01:00 +3°C° 0 mm 1 m/S 726 mmHg 70%
    02:00 +3°C° 0 mm 1 m/S 726 mmHg 69%
    03:00 +3°C° 0 mm 1 m/S 726 mmHg 68%
    04:00 +3°C° 0 mm 1 m/S 725 mmHg 67%
    05:00 +3°C° 0 mm 1 m/S 725 mmHg 66%
    06:00 +2°C° 0 mm 1 m/S 725 mmHg 66%
    07:00 +2°C° 0 mm 1 m/S 725 mmHg 65%
    08:00 +4°C° 0 mm 1 m/S 726 mmHg 61%
    09:00 +6°C° 0 mm 1 m/S 726 mmHg 57%
    10:00 +9°C° 0 mm 1 m/S 726 mmHg 53%
    11:00 +10°C° 0 mm 1 m/S 726 mmHg 51%
    12:00 +11°C° 0 mm 1 m/S 725 mmHg 48%
    13:00 +12°C° 0 mm 1 m/S 725 mmHg 46%
    14:00 +11°C° 0 mm 1 m/S 725 mmHg 51%
    15:00 +11°C° 0 mm 1 m/S 725 mmHg 56%
    16:00 +10°C° 0 mm 1 m/S 724 mmHg 62%
    17:00 +8°C° 0 mm 1 m/S 724 mmHg 68%
    18:00 +7°C° 0 mm 1 m/S 724 mmHg 73%
    19:00 +4°C° 0 mm 2 m/S 724 mmHg 79%
    20:00 +4°C° 0 mm 2 m/S 724 mmHg 81%
    21:00 +3°C° 0 mm 2 m/S 724 mmHg 82%
    22:00 +3°C° 0 mm 2 m/S 724 mmHg 83%
    23:00 +2°C° 0 mm 2 m/S 725 mmHg 82%

    20 Februar, Mittwoch

    Zeit Temperatur Niederschläge Wind Luftdruck Luftfeuchtigkeit
    00:00 +2°C° 0 mm 2 m/S 725 mmHg 81%
    01:00 +2°C° 0 mm 2 m/S 725 mmHg 81%
    02:00 +2°C° 0.1 mm 2 m/S 725 mmHg 82%
    03:00 +3°C° 0.1 mm 2 m/S 725 mmHg 84%
    04:00 +3°C° 0.1 mm 2 m/S 725 mmHg 85%
    05:00 +3°C° 0.2 mm 2 m/S 725 mmHg 88%
    06:00 +3°C° 0.2 mm 2 m/S 726 mmHg 91%
    07:00 +3°C° 0.2 mm 2 m/S 726 mmHg 94%
    08:00 +4°C° 0 mm 2 m/S 726 mmHg 88%
    09:00 +4°C° 0 mm 3 m/S 727 mmHg 82%
    10:00 +4°C° 0 mm 3 m/S 727 mmHg 76%
    11:00 +5°C° 0 mm 3 m/S 727 mmHg 72%
    12:00 +7°C° 0 mm 3 m/S 727 mmHg 68%
    13:00 +8°C° 0 mm 3 m/S 727 mmHg 63%
    14:00 +7°C° 0 mm 3 m/S 727 mmHg 65%
    15:00 +7°C° 0 mm 3 m/S 727 mmHg 67%
    16:00 +7°C° 0 mm 3 m/S 727 mmHg 69%
    17:00 +6°C° 0 mm 2 m/S 727 mmHg 74%
    18:00 +4°C° 0 mm 2 m/S 727 mmHg 80%
    19:00 +3°C° 0 mm 2 m/S 727 mmHg 85%
    20:00 +3°C° 0 mm 2 m/S 727 mmHg 84%
    21:00 +3°C° 0 mm 2 m/S 728 mmHg 83%
    22:00 +3°C° 0 mm 2 m/S 728 mmHg 82%
    23:00 +3°C° 0 mm 2 m/S 728 mmHg 81%

    21 Februar, Donnerstag

    Zeit Temperatur Niederschläge Wind Luftdruck Luftfeuchtigkeit
    00:00 +3°C° 0 mm 2 m/S 728 mmHg 81%
    01:00 +3°C° 0 mm 2 m/S 728 mmHg 80%
    02:00 +2°C° 0 mm 2 m/S 728 mmHg 81%
    03:00 +2°C° 0 mm 2 m/S 727 mmHg 82%
    04:00 +1°C° 0 mm 2 m/S 727 mmHg 82%
    05:00 +1°C° 0 mm 2 m/S 727 mmHg 82%
    06:00 +1°C° 0 mm 2 m/S 727 mmHg 82%
    07:00 +1°C° 0 mm 2 m/S 728 mmHg 82%
    08:00 +3°C° 0 mm 2 m/S 728 mmHg 74%
    09:00 +5°C° 0 mm 2 m/S 728 mmHg 67%
    10:00 +7°C° 0 mm 2 m/S 728 mmHg 60%
    11:00 +7°C° 0 mm 2 m/S 728 mmHg 58%
    12:00 +8°C° 0 mm 3 m/S 727 mmHg 56%
    13:00 +8°C° 0 mm 3 m/S 727 mmHg 54%
    14:00 +7°C° 0 mm 3 m/S 727 mmHg 60%
    15:00 +7°C° 0 mm 2 m/S 726 mmHg 66%
    16:00 +6°C° 0 mm 2 m/S 726 mmHg 71%
    17:00 +6°C° 0.1 mm 2 m/S 726 mmHg 75%
    18:00 +5°C° 0.1 mm 2 m/S 726 mmHg 78%
    19:00 +5°C° 0.1 mm 2 m/S 726 mmHg 81%
    20:00 +4°C° 0.7 mm 3 m/S 726 mmHg 84%
    21:00 +4°C° 0.7 mm 3 m/S 726 mmHg 87%
    22:00 +4°C° 0.7 mm 3 m/S 726 mmHg 90%
    23:00 +3°C° 0.1 mm 3 m/S 726 mmHg 91%

    22 Februar, Freitag

    Zeit Temperatur Niederschläge Wind Luftdruck Luftfeuchtigkeit
    00:00 +3°C° 0.1 mm 3 m/S 726 mmHg 91%
    01:00 +4°C° 0.1 mm 2 m/S 726 mmHg 92%
    02:00 +4°C° 0.3 mm 2 m/S 725 mmHg 93%
    03:00 +4°C° 0.3 mm 2 m/S 725 mmHg 93%
    04:00 +4°C° 0.3 mm 2 m/S 725 mmHg 94%
    05:00 +3°C° 0.6 mm 3 m/S 725 mmHg 94%
    06:00 +3°C° 0.6 mm 3 m/S 725 mmHg 94%
    07:00 +3°C° 0.6 mm 3 m/S 724 mmHg 93%
    08:00 +3°C° 0.9 mm 4 m/S 724 mmHg 92%
    09:00 +3°C° 0.9 mm 4 m/S 724 mmHg 91%
    10:00 +3°C° 0.9 mm 4 m/S 724 mmHg 90%
    11:00 +3°C° 0.9 mm 4 m/S 724 mmHg 90%
    12:00 +3°C° 0.9 mm 4 m/S 725 mmHg 91%
    13:00 +3°C° 0.9 mm 4 m/S 725 mmHg 91%
    14:00 +1°C° 0.9 mm 4 m/S 726 mmHg 90%
    15:00 -1°C° 0.9 mm 5 m/S 726 mmHg 90%
    16:00 -3°C° 0.9 mm 6 m/S 727 mmHg 90%
    17:00 -4°C° 0.4 mm 6 m/S 728 mmHg 88%
    18:00 -5°C° 0.4 mm 6 m/S 730 mmHg 86%
    19:00 -6°C° 0.4 mm 6 m/S 731 mmHg 84%
    20:00 -8°C° 0.1 mm 6 m/S 732 mmHg 80%
    21:00 -8°C° 0.1 mm 6 m/S 733 mmHg 76%
    22:00 -8°C° 0.1 mm 5 m/S 734 mmHg 72%
    23:00 -10°C° 0 mm 5 m/S 734 mmHg 70%
    Mehr zeigen